When you browse on this site, cookies collect data to enhance your experience and personalize the content and advertising you see.
Visit our Privacy Policy to learn more. By continuing to use the site, you agree to this use of cookies and data.
  • In Lithuania
  • List of Countries
  • For 7 days
  • Water Temperature
  • Satellite Maps
  • Weather Map
  • Weather Widgets
  • user-avatar
    Login

    Hourly Weather Lubango

    Today, 22 February, Friday

    Time Temperature Precipitation Wind Pressure Humidity
    00:00 +16°C° 0 mm 1 mps 609 mmHg 90%
    01:00 +15°C° 0 mm 0 mps 609 mmHg 90%
    02:00 +14°C° 0 mm 0 mps 609 mmHg 90%
    03:00 +14°C° 0 mm 0 mps 608 mmHg 89%
    04:00 +14°C° 0 mm 0 mps 608 mmHg 89%
    05:00 +14°C° 0 mm 0 mps 608 mmHg 86%
    06:00 +15°C° 0 mm 0 mps 609 mmHg 83%
    07:00 +16°C° 0 mm 0 mps 610 mmHg 79%
    08:00 +21°C° 0 mm 1 mps 610 mmHg 67%
    09:00 +23°C° 0 mm 1 mps 611 mmHg 56%
    10:00 +26°C° 0 mm 2 mps 612 mmHg 45%
    11:00 +26°C° 0 mm 2 mps 612 mmHg 43%
    12:00 +26°C° 0 mm 2 mps 612 mmHg 42%
    13:00 +27°C° 0 mm 1 mps 611 mmHg 40%
    14:00 +25°C° 0.2 mm 2 mps 610 mmHg 48%
    15:00 +24°C° 0.2 mm 2 mps 609 mmHg 56%
    16:00 +23°C° 0.2 mm 2 mps 608 mmHg 63%
    17:00 +20°C° 0.6 mm 2 mps 608 mmHg 72%
    18:00 +19°C° 0.6 mm 2 mps 608 mmHg 81%
    19:00 +18°C° 0.6 mm 2 mps 608 mmHg 89%
    20:00 +17°C° 0.2 mm 2 mps 609 mmHg 91%
    21:00 +17°C° 0.2 mm 2 mps 609 mmHg 93%
    22:00 +17°C° 0.2 mm 2 mps 610 mmHg 96%
    23:00 +16°C° 0.1 mm 1 mps 610 mmHg 96%

    Tomorrow, 23 February, Saturday

    Time Temperature Precipitation Wind Pressure Humidity
    00:00 +16°C° 0.1 mm 1 mps 609 mmHg 96%
    01:00 +16°C° 0.1 mm 1 mps 609 mmHg 96%
    02:00 +16°C° 0.1 mm 1 mps 609 mmHg 97%
    03:00 +15°C° 0.1 mm 1 mps 608 mmHg 97%
    04:00 +15°C° 0.1 mm 1 mps 608 mmHg 97%
    05:00 +15°C° 0 mm 1 mps 608 mmHg 96%
    06:00 +15°C° 0 mm 1 mps 608 mmHg 94%
    07:00 +16°C° 0 mm 1 mps 609 mmHg 93%
    08:00 +19°C° 0.1 mm 1 mps 610 mmHg 79%
    09:00 +22°C° 0.1 mm 1 mps 611 mmHg 65%
    10:00 +25°C° 0.1 mm 1 mps 612 mmHg 52%
    11:00 +25°C° 0.2 mm 2 mps 612 mmHg 49%
    12:00 +25°C° 0.2 mm 2 mps 611 mmHg 47%
    13:00 +25°C° 0.2 mm 2 mps 610 mmHg 45%
    14:00 +25°C° 0.1 mm 2 mps 610 mmHg 45%
    15:00 +25°C° 0.1 mm 2 mps 609 mmHg 45%
    16:00 +25°C° 0.1 mm 2 mps 609 mmHg 45%
    17:00 +23°C° 0.3 mm 2 mps 608 mmHg 56%
    18:00 +21°C° 0.3 mm 1 mps 608 mmHg 67%
    19:00 +19°C° 0.3 mm 1 mps 607 mmHg 79%
    20:00 +19°C° 0.2 mm 1 mps 607 mmHg 83%
    21:00 +18°C° 0.2 mm 1 mps 608 mmHg 87%
    22:00 +16°C° 0.2 mm 1 mps 608 mmHg 91%
    23:00 +16°C° 0.2 mm 1 mps 608 mmHg 92%

    Day after tomorrow, 24 February, Sunday

    Time Temperature Precipitation Wind Pressure Humidity
    00:00 +16°C° 0.2 mm 1 mps 607 mmHg 93%
    01:00 +15°C° 0.2 mm 0 mps 607 mmHg 93%
    02:00 +14°C° 0 mm 0 mps 607 mmHg 92%
    03:00 +14°C° 0 mm 0 mps 607 mmHg 91%
    04:00 +14°C° 0 mm 0 mps 606 mmHg 91%
    05:00 +15°C° 0 mm 0 mps 607 mmHg 88%
    06:00 +16°C° 0 mm 1 mps 607 mmHg 85%
    07:00 +18°C° 0 mm 1 mps 607 mmHg 83%
    08:00 +21°C° 0 mm 1 mps 609 mmHg 70%
    09:00 +23°C° 0 mm 1 mps 610 mmHg 57%
    10:00 +26°C° 0 mm 2 mps 611 mmHg 43%
    11:00 +27°C° 0.1 mm 2 mps 611 mmHg 42%
    12:00 +27°C° 0.1 mm 2 mps 610 mmHg 41%
    13:00 +27°C° 0.1 mm 2 mps 609 mmHg 39%
    14:00 +26°C° 0 mm 2 mps 608 mmHg 45%
    15:00 +25°C° 0 mm 2 mps 608 mmHg 50%
    16:00 +24°C° 0 mm 1 mps 607 mmHg 56%
    17:00 +22°C° 0.1 mm 1 mps 607 mmHg 63%
    18:00 +21°C° 0.1 mm 1 mps 607 mmHg 69%
    19:00 +20°C° 0.1 mm 1 mps 607 mmHg 76%
    20:00 +19°C° 0.3 mm 1 mps 607 mmHg 81%
    21:00 +18°C° 0.3 mm 1 mps 607 mmHg 86%
    22:00 +16°C° 0.3 mm 1 mps 608 mmHg 91%
    23:00 +16°C° 0.5 mm 1 mps 607 mmHg 90%

    25 February, Monday

    Time Temperature Precipitation Wind Pressure Humidity
    00:00 +16°C° 0.5 mm 1 mps 607 mmHg 90%
    01:00 +16°C° 0.5 mm 1 mps 607 mmHg 90%
    02:00 +15°C° 0 mm 1 mps 607 mmHg 90%
    03:00 +14°C° 0 mm 0 mps 606 mmHg 90%
    04:00 +14°C° 0 mm 0 mps 606 mmHg 91%
    05:00 +14°C° 0 mm 0 mps 606 mmHg 88%
    06:00 +15°C° 0 mm 0 mps 607 mmHg 84%
    07:00 +18°C° 0 mm 1 mps 607 mmHg 81%
    08:00 +20°C° 0 mm 1 mps 609 mmHg 69%
    09:00 +23°C° 0 mm 2 mps 610 mmHg 58%
    10:00 +26°C° 0 mm 2 mps 611 mmHg 46%
    11:00 +26°C° 0 mm 2 mps 611 mmHg 45%
    12:00 +27°C° 0 mm 2 mps 610 mmHg 44%
    13:00 +27°C° 0 mm 2 mps 609 mmHg 44%
    14:00 +26°C° 0.1 mm 2 mps 609 mmHg 49%
    15:00 +25°C° 0.1 mm 2 mps 608 mmHg 54%
    16:00 +23°C° 0.1 mm 1 mps 607 mmHg 59%
    17:00 +22°C° 0.5 mm 1 mps 607 mmHg 66%
    18:00 +20°C° 0.5 mm 1 mps 607 mmHg 74%
    19:00 +18°C° 0.5 mm 2 mps 607 mmHg 81%
    20:00 +18°C° 0.6 mm 1 mps 607 mmHg 85%
    21:00 +18°C° 0.6 mm 1 mps 608 mmHg 88%
    22:00 +16°C° 0.6 mm 1 mps 608 mmHg 92%
    23:00 +16°C° 0.5 mm 1 mps 608 mmHg 92%

    26 February, Tuesday

    Time Temperature Precipitation Wind Pressure Humidity
    00:00 +16°C° 0.5 mm 1 mps 608 mmHg 91%
    01:00 +15°C° 0.5 mm 1 mps 607 mmHg 91%
    02:00 +15°C° 0.4 mm 1 mps 607 mmHg 90%
    03:00 +15°C° 0.4 mm 1 mps 607 mmHg 89%
    04:00 +15°C° 0.4 mm 1 mps 607 mmHg 87%
    05:00 +16°C° 1 mm 1 mps 607 mmHg 86%
    06:00 +16°C° 1 mm 1 mps 608 mmHg 84%
    07:00 +18°C° 1 mm 1 mps 609 mmHg 83%
    08:00 +20°C° 0.3 mm 1 mps 610 mmHg 73%
    09:00 +23°C° 0.3 mm 1 mps 610 mmHg 62%
    10:00 +25°C° 0.3 mm 1 mps 611 mmHg 52%
    11:00 +26°C° 0.6 mm 1 mps 611 mmHg 51%
    12:00 +26°C° 0.6 mm 1 mps 610 mmHg 50%
    13:00 +26°C° 0.6 mm 1 mps 609 mmHg 49%
    14:00 +25°C° 1.7 mm 1 mps 609 mmHg 54%
    15:00 +24°C° 1.7 mm 1 mps 608 mmHg 59%
    16:00 +23°C° 1.7 mm 1 mps 607 mmHg 63%
    17:00 +22°C° 0.5 mm 1 mps 607 mmHg 69%
    18:00 +21°C° 0.5 mm 1 mps 607 mmHg 74%
    19:00 +19°C° 0.5 mm 2 mps 607 mmHg 79%
    20:00 +19°C° 0.3 mm 1 mps 607 mmHg 82%
    21:00 +18°C° 0.3 mm 1 mps 607 mmHg 86%
    22:00 +16°C° 0.3 mm 1 mps 608 mmHg 89%
    23:00 +16°C° 0.1 mm 1 mps 607 mmHg 88%

    27 February, Wednesday

    Time Temperature Precipitation Wind Pressure Humidity
    00:00 +16°C° 0.1 mm 1 mps 607 mmHg 87%
    01:00 +16°C° 0.1 mm 1 mps 607 mmHg 86%
    02:00 +16°C° 0.1 mm 1 mps 607 mmHg 85%
    03:00 +15°C° 0.1 mm 0 mps 607 mmHg 85%
    04:00 +15°C° 0.1 mm 0 mps 606 mmHg 85%
    05:00 +16°C° 0.1 mm 0 mps 607 mmHg 84%
    06:00 +16°C° 0.1 mm 0 mps 608 mmHg 82%
    07:00 +16°C° 0.1 mm 0 mps 608 mmHg 80%
    08:00 +21°C° 0 mm 1 mps 609 mmHg 69%
    09:00 +24°C° 0 mm 1 mps 610 mmHg 57%
    10:00 +27°C° 0 mm 2 mps 612 mmHg 45%
    11:00 +27°C° 0 mm 1 mps 611 mmHg 44%
    12:00 +28°C° 0 mm 1 mps 611 mmHg 43%
    13:00 +28°C° 0 mm 1 mps 610 mmHg 42%
    14:00 +27°C° 0.7 mm 2 mps 609 mmHg 48%
    15:00 +25°C° 0.7 mm 2 mps 608 mmHg 55%
    16:00 +24°C° 0.7 mm 2 mps 607 mmHg 61%
    17:00 +23°C° 0.9 mm 2 mps 607 mmHg 67%
    18:00 +21°C° 0.9 mm 1 mps 607 mmHg 73%
    19:00 +20°C° 0.9 mm 1 mps 607 mmHg 79%
    20:00 +19°C° 0.2 mm 1 mps 607 mmHg 81%
    21:00 +19°C° 0.2 mm 1 mps 607 mmHg 84%
    22:00 +18°C° 0.2 mm 1 mps 608 mmHg 86%
    23:00 +18°C° 0.1 mm 1 mps 607 mmHg 87%
    Show more